SCP
1 1 1 1 1 1 1 1 0 0 0 0 0 0 0 0 0 0 1 1 1 1 1 1 1 1 1 0 0 0 0 0 0 0 0 0 0 0 0 0 0 0 0
1 1 1 1 1 1 1 0 0 0 0 0 0 0 0 0 0 0 1 0 1 1 1 1 1 1 1 0 0 0 0 0 0 0 0 0 0 0 0 0 0 0 0
1 1 1 1 1 1 1 0 0 0 0 0 0 0 0 0 0 0 0 0 0 0 0 0 0 1 1 1 0 0 0 0 0 0 0 0 0 0 0 0 0 0 0
1 1 1 0 0 0 0 0 0 0 0 0 0 0 0 0 0 0 0 0 0 0 0 0 0 0 0 0 0 0 0 0 0 0 0 0 0 0 0 0 0 0 0
1 1 0 0 0 0 0 0 0 0 0 0 0 0 0 0 0 0 0 0 0 0 0 0 0 0 0 0 0 0 0 1 1 1 0 0 0 0 0 0 0 0 0
0 0 0 0 0 0 0 0 1 1 1 0 0 0 0 0 0 0 0 0 0 0 0 0 0 0 0 0 0 0 0 0 1 1 0 0 0 0 0 0 0 0 0
0 0 0 0 0 0 0 0 1 1 1 1 1 1 1 0 0 0 0 0 0 0 0 0 0 0 0 0 0 0 0 0 0 0 0 0 0 0 0 0 0 0 0
0 0 0 0 0 0 1 1 1 1 1 1 1 1 1 0 0 0 0 0 0 0 0 0 0 0 0 0 0 0 0 0 0 0 0 0 0 0 0 0 0 0 0
0 0 0 0 1 1 1 1 1 1 2 2 1 1 1 1 0 0 0 0 0 0 0 0 0 0 0 0 0 0 0 0 0 0 0 0 0 0 0 0 0 0 0
1 1 1 1 1 1 1 1 2 2 2 2 1 1 1 1 0 0 0 0 0 0 0 0 0 0 0 0 0 0 0 0 0 0 0 0 0 0 0 0 0 0 0
1 1 1 1 1 1 1 2 2 2 2 2 1 1 1 0 0 0 0 0 0 0 0 0 0 0 0 0 0 0 0 0 0 0 0 0 0 0 0 0 0 0 0
1 1 1 1 1 1 1 2 2 2 2 2 1 1 1 0 0 0 0 0 0 0 0 0 0 0 0 0 0 0 0 0 0 0 0 0 0 1 1 1 0 0 0
1 1 1 1 1 1 2 2 2 3 2 2 1 1 1 1 0 0 0 0 0 0 0 0 0 0 0 0 0 0 0 0 0 0 0 0 0 0 1 1 1 0 0
1 1 1 1 1 2 2 3 3 3 3 2 2 1 1 1 1 1 0 0 0 0 0 0 0 0 0 0 0 0 0 0 0 0 0 0 0 0 0 0 0 0 0
1 1 1 1 2 2 3 3 3 3 2 2 1 1 1 1 1 1 1 0 0 0 0 0 0 0 0 0 0 0 0 0 0 0 0 0 0 0 0 0 0 0 0
1 1 1 1 2 2 3 2 2 2 1 1 1 1 1 1 1 0 0 0 0 0 0 0 0 0 0 0 0 0 0 0 0 0 0 0 0 0 0 0 0 0 0
1 1 1 1 1 2 2 2 1 1 1 1 0 0 0 0 0 0 0 0 0 0 0 0 0 0 0 0 0 0 0 0 0 0 0 0 0 0 0 0 0 0 0
1 1 1 1 1 1 1 1 1 1 1 1 1 1 0 0 0 0 0 0 0 0 0 0 1 1 1 1 1 0 0 0 0 0 0 0 0 0 0 0 0 0 0
1 1 1 1 1 1 1 1 1 1 1 1 1 1 0 0 0 0 0 0 0 0 0 1 1 1 1 1 1 1 0 0 0 0 0 0 0 0 0 0 0 0 0
1 1 1 1 1 1 1 1 1 1 1 1 1 1 0 0 1 0 0 0 1 1 1 1 1 1 1 1 0 0 0 0 0 0 0 0 0 0 0 0 0 0 0
1 1 1 0 1 1 1 0 0 0 0 0 0 0 0 0 1 1 0 0 1 1 1 1 1 1 1 0 0 0 0 0 0 0 0 0 0 0 0 0 0 0 0
1 1 1 0 0 0 0 0 0 0 0 0 1 0 0 0 0 1 1 0 1 1 1 0 0 0 0 0 0 0 0 0 0 0 0 0 0 0 0 0 0 0 0
1 1 1 1 0 0 0 0 0 0 0 1 1 1 0 0 0 0 0 0 0 1 0 0 0 0 0 0 0 0 0 0 0 0 0 0 0 0 0 0 0 0 0
1 0 1 1 1 0 0 0 0 0 0 1 1 1 0 0 0 0 0 0 0 0 0 0 0 0 0 0 0 0 0 0 0 0 0 0 0 0 0 0 0 0 0
0 0 0 0 0 0 0 0 0 0 0 0 0 0 0 0 0 0 0 0 0 0 0 0 0 0 0 0 0 0 0 0 0 0 0 0 0 0 0 0 0 0 0
0 0 0 0 0 0 0 0 0 0 0 0 0 0 0 0 0 0 0 0 0 0 0 0 0 0 0 0 0 0 0 0 0 0 0 0 0 0 0 0 0 0 0
Wind_Speed
5 5 5 4 4 4 4 4 4 4 4 5 5 4 4 4 5 4 4 4 3 3 3 3 3 2 2 2 2 2 2 1 1 2 2 2 3 2 2 1 2 2 4
3 4 4 4 3 3 3 3 4 4 4 5 5 5 5 5 5 4 4 4 4 4 3 3 3 2 3 2 2 3 2 2 2 3 3 3 3 2 2 2 1 1 2
3 3 3 4 3 3 3 3 3 4 4 5 5 5 5 5 5 5 5 5 4 4 4 4 4 4 4 3 3 3 2 2 2 3 3 2 2 2 2 2 2 1 2
3 3 3 3 3 3 3 3 3 4 4 5 5 5 5 5 5 5 5 5 5 4 4 4 4 4 4 4 4 3 3 3 3 3 3 3 3 3 3 2 2 2 2
4 4 4 3 3 3 3 3 3 3 4 4 5 5 5 5 4 5 5 5 5 4 4 4 3 1 2 1 2 3 4 3 3 3 3 3 3 3 3 3 2 2 2
5 4 3 3 3 3 3 3 3 3 4 4 4 5 5 4 3 3 4 5 5 4 4 4 4 4 4 3 3 3 3 4 4 4 4 4 4 4 3 3 3 3 3
5 5 4 4 4 3 3 3 3 3 3 4 4 4 5 4 5 5 5 5 5 4 4 4 3 3 4 5 6 6 5 5 5 5 5 4 4 4 5 5 4 4 3
6 5 5 4 4 4 4 4 4 4 3 4 4 4 3 3 5 6 6 6 5 4 4 4 4 5 4 4 4 5 5 5 5 6 5 4 3 3 5 4 4 4 3
6 6 5 5 5 5 4 4 4 4 4 4 4 4 4 4 5 6 6 5 4 5 5 4 4 4 4 4 5 5 5 4 3 3 3 2 1 1 2 3 4 4 4
6 6 6 6 6 6 5 5 4 4 4 4 4 4 5 5 5 7 8 5 5 5 4 4 4 4 5 7 7 6 6 5 4 4 4 4 5 5 6 6 4 4 4
5 6 6 6 6 6 5 5 4 4 4 4 4 4 5 4 5 6 7 5 5 5 4 4 4 7 7 8 8 6 4 4 4 4 4 4 4 4 5 5 4 4 5
4 5 5 6 5 5 5 5 5 4 4 4 4 4 4 4 4 5 7 7 5 5 5 4 3 7 8 8 7 5 4 4 4 4 4 4 4 4 4 4 4 4 4
5 5 5 5 5 5 5 5 5 5 4 4 4 4 4 3 3 4 6 8 7 5 3 2 2 6 7 7 8 7 7 5 5 5 5 5 4 3 3 3 4 3 3
5 5 5 5 5 5 5 5 5 5 5 4 4 4 4 3 3 4 4 5 6 5 4 3 4 5 5 5 6 7 6 5 5 5 5 4 3 3 4 4 4 4 4
5 5 5 4 4 5 5 4 5 5 5 5 5 4 4 5 4 3 3 4 4 4 4 4 4 4 5 5 5 5 5 5 6 5 5 5 4 4 4 4 4 5 5
5 5 4 4 4 4 4 4 4 5 4 5 5 5 4 4 2 4 5 4 3 4 4 5 5 6 6 6 6 6 6 6 6 6 6 6 5 5 5 5 5 5 6
6 5 4 4 5 5 5 5 4 4 5 6 6 6 6 4 3 5 5 5 4 5 5 6 6 6 6 6 6 6 6 6 6 6 6 6 6 6 6 6 6 6 6
7 6 6 5 5 5 5 5 5 5 4 4 6 8 8 7 6 6 5 4 4 6 6 6 6 6 6 6 6 6 6 6 6 6 6 6 6 6 6 7 7 7 6
6 5 5 5 5 6 6 6 6 6 5 5 4 4 7 7 7 6 7 6 6 6 6 6 6 6 6 6 6 6 6 6 7 6 7 7 7 7 7 7 7 8 7
6 6 6 5 6 6 6 6 6 6 6 5 5 4 4 5 5 5 6 6 6 6 6 6 6 6 6 6 6 6 6 7 7 7 7 7 7 7 8 9 8 8 7
5 5 7 6 6 6 6 6 6 6 6 5 5 5 5 5 6 6 6 6 6 7 6 6 6 6 6 6 6 7 9 7 7 7 7 7 7 7 7 7 8 8 7
5 5 5 6 6 6 7 7 6 7 7 7 5 5 7 6 6 6 6 6 6 6 6 6 6 6 6 6 7 7 8 8 8 7 7 7 7 8 8 8 8 7 8
5 5 6 6 6 6 7 7 7 7 7 6 6 5 5 6 6 6 6 6 6 6 6 6 6 6 6 6 7 7 8 8 7 7 7 7 7 7 8 8 10 9 9
6 6 6 6 6 6 6 6 6 7 7 6 6 6 6 6 6 7 6 6 5 6 6 6 7 9 10 7 6 7 7 7 7 7 9 8 8 7 7 8 9 10 10
5 6 6 6 5 5 6 6 6 6 6 6 6 6 6 6 6 6 6 5 6 6 6 6 6 7 10 10 9 7 6 7 7 6 7 7 9 9 8 9 8 8 9
5 5 5 5 5 5 5 5 5 6 6 6 6 6 6 6 6 6 5 5 5 5 6 6 7 8 9 8 9 8 6 7 8 9 7 7 8 8 8 7 9 8 9
Wind_Direction
203 203 205 208 214 219 228 229 223 220 217 214 214 219 215 207 204 199 206 196 208 202 200 208 213 213 205 202 211 226 240 234 180 141 140 157 166 157 138 149 143 149 119
205 202 204 205 205 216 225 233 229 224 223 221 220 221 216 215 212 208 206 201 202 206 202 205 207 192 211 212 215 219 211 219 204 168 163 175 179 167 163 168 166 152 137
193 196 199 201 205 213 223 229 231 231 226 220 219 223 219 214 208 210 212 209 210 214 211 209 206 200 205 199 210 211 199 194 201 191 167 159 177 168 174 168 168 177 176
194 198 204 206 212 221 224 226 230 229 232 228 219 219 221 217 211 210 213 212 212 211 215 220 215 211 214 203 203 202 194 192 196 197 181 177 179 178 195 184 179 185 207
198 206 211 215 211 222 229 231 232 232 235 237 231 222 220 223 221 221 217 216 214 207 210 219 224 249 336 261 236 212 201 203 199 202 198 194 191 191 204 202 203 207 205
206 209 211 220 212 218 229 234 231 230 231 225 232 231 222 219 180 217 241 217 220 214 210 211 198 196 191 209 240 260 261 234 215 207 209 212 212 205 206 215 211 218 217
210 209 209 214 211 218 226 224 221 221 224 225 226 228 227 208 174 193 220 231 222 221 220 212 203 197 208 212 199 209 229 256 266 254 231 226 222 204 206 213 215 228 246
214 214 211 216 212 214 223 223 223 221 212 220 226 224 226 198 177 191 200 225 221 220 225 222 210 203 204 222 218 218 216 209 222 237 245 243 237 219 219 224 222 224 233
219 223 218 217 216 216 218 223 225 223 219 223 221 217 218 201 181 189 200 220 222 221 221 225 221 211 174 204 222 222 223 215 199 246 308 329 20 260 234 213 208 217 230
224 226 221 218 218 219 221 222 224 224 224 229 229 225 228 224 178 191 208 220 221 219 215 216 211 222 185 201 221 221 224 219 206 198 211 209 213 200 209 225 223 230 237
233 230 225 220 220 223 223 219 219 221 223 228 231 231 233 231 185 188 210 231 226 224 218 217 202 192 202 210 231 234 231 238 222 218 217 214 214 210 206 220 227 237 245
230 228 228 226 224 219 215 215 219 218 220 228 233 234 235 223 212 195 207 227 249 234 230 226 202 181 201 211 221 221 210 223 227 219 219 219 216 214 211 213 221 231 252
224 223 225 226 222 218 215 211 212 215 221 225 225 229 229 225 204 197 209 220 232 244 244 245 212 188 201 210 211 209 206 215 218 220 224 226 224 222 213 209 219 225 241
229 230 227 223 221 218 216 215 214 213 218 222 226 228 228 220 217 206 209 212 211 227 240 212 196 195 211 221 205 206 216 219 221 226 229 226 215 207 211 211 211 215 225
237 233 229 223 223 226 223 223 226 226 225 226 228 229 225 227 220 215 223 223 219 223 227 219 214 205 208 212 215 214 214 213 217 225 224 219 215 213 216 214 218 220 230
238 235 232 224 221 224 224 225 222 234 229 235 250 249 243 242 204 195 218 239 238 218 221 222 223 221 221 220 218 217 218 220 221 221 222 222 219 218 216 213 218 226 233
240 238 234 232 228 226 225 227 229 221 219 223 225 231 241 239 215 209 214 218 219 203 222 231 231 230 228 226 224 223 224 224 223 222 223 223 221 221 220 219 219 226 234
243 237 235 234 233 231 230 232 233 231 228 229 219 216 222 224 222 216 206 198 213 212 230 235 235 233 231 229 226 227 228 224 220 222 223 223 222 223 223 224 224 226 231
243 239 234 235 234 235 232 233 236 235 236 238 237 214 208 214 216 212 197 215 223 224 230 234 236 236 233 232 232 230 228 227 225 225 225 223 222 224 226 230 230 226 232
244 236 237 238 236 235 235 233 233 234 237 236 234 232 210 207 216 209 209 222 228 231 235 237 237 239 238 234 231 230 230 229 227 227 227 225 224 226 228 230 230 227 227
244 233 226 233 237 238 238 237 236 237 238 239 238 230 221 224 227 222 217 222 230 234 235 240 238 235 236 234 232 230 232 232 230 229 229 228 226 228 230 229 229 230 230
246 246 240 239 237 237 239 239 238 238 239 240 239 227 213 227 233 232 228 228 232 236 238 240 241 236 233 232 232 234 234 234 231 230 230 229 228 229 229 228 228 227 227
246 247 245 243 242 238 234 236 238 238 238 236 234 231 222 230 234 235 235 235 236 236 236 238 243 243 238 237 238 238 238 237 233 229 230 229 229 229 229 229 227 226 227
244 244 244 242 241 242 240 239 238 239 239 237 234 231 228 229 234 237 238 238 239 241 241 242 246 248 247 245 243 241 243 245 244 238 232 233 233 233 231 232 233 229 229
247 246 245 243 243 243 244 244 241 237 237 239 238 237 237 235 236 238 237 238 242 245 249 252 253 254 251 250 249 248 247 246 246 245 237 233 233 233 232 233 232 231 228
251 252 250 248 246 247 249 248 245 243 241 242 244 243 242 241 241 242 241 238 243 247 252 255 259 260 258 254 253 257 254 244 239 242 239 233 230 231 231 232 230 229 228